{"data":{"norad_id":66502,"intl_designator":"2025-263T","name":"STARLINK-35922","alt_names":[],"object_type":"PAYLOAD","status":"ACTIVE","operator":null,"country":"US","launch_date":"2025-11-15","launch_site_code":"AFETR","launch_vehicle":null,"mission":null,"orbit_class":"UNKNOWN","rcs_meters":null,"size_class":null,"mass_kg":null,"dimensions":null,"purposes":["comms"],"wikipedia_slug":null,"has_3d_model":false,"image_url":null,"decayed_at":null,"tle_current":{"epoch":"2026-05-24T17:19:31.950048Z","epoch_age_seconds":102335,"freshness":"FRESH","line1":"1 66502U 25263T   26144.72189757  .00015207  00000+0  56086-3 0  9992","line2":"2 66502  42.9998 281.5989 0001422 273.7166  86.3523 15.27588191 30529","mean_motion":15.27588191,"eccentricity":0.0001422,"inclination_deg":42.9998,"raan_deg":281.5989,"arg_perigee_deg":273.7166,"mean_anomaly_deg":86.3523,"bstar":0.00056086,"rev_number":3052,"period_min":94.266243250895,"perigee_km":482.04891217339,"apogee_km":484.00022652371,"semimajor_km":6861.1615693486,"source":"CELESTRAK","updated_at":"2026-05-25T13:38:21.245608Z"}}}